Weather History for Tacoma, WA

Change the Weather History Date:

Tuesday, June 25, 2013

  Actual Average Record
Temperature  
Mean Temperature 64 °F -  
Max Temperature 73 °F 69 °F 88 °F (1968)
Min Temperature 56 °F 49 °F 42 °F (1964)
Degree Days  
Heating Degree Days 1    
Growing Degree Days 14 (Base 50)    
Moisture  
Dew Point 57 °F    
Average Humidity 87    
Maximum Humidity 100    
Minimum Humidity 48    
Precipitation  
Precipitation 0.26 in - - ()
Sea Level Pressure  
Sea Level Pressure 29.76 in    
Wind  
Wind Speed 4 mph (South)    
Max Wind Speed 21 mph    
Max Gust Speed 33 mph    
Visibility 9 miles    
Events Rain , Thunderstorm    
Averages and records for this station are not official NWS values.
T = Trace of Precipitation, MM = Missing Value Source: NWS Daily Summary

Daily Weather History Graph

Daily Weather History Graph

Search for Another Location

Airport:

Trip Planner

Search our weather history database for the weather conditions in past years. The results will help you decide how hot, cold, wet, or windy it might be!

Date:

Astronomy

Jun. 25, 2013 Rise Set
Actual Time 5:15 AM PDT 9:09 PM PDT
Civil Twilight 4:35 AM PDT 9:49 PM PDT
Nautical Twilight 3:40 AM PDT 10:44 PM PDT
Astronomical Twilight 2:17 AM PDT 12:07 AM PDT
Moon 10:44 PM PDT (6/25) 8:13 AM PDT (6/25)
Length of Visible Light 17h 14m
Length of Day
15h 54m
Waning Gibbous, 92% of the Moon is Illuminated
Jun 25
Waning Gibbous
Jun 29
Last Quarter
Jul 8
New
Jul 15
First Quarter
Jul 22
Full

Hourly Weather History & Observations

Time (PDT) Temp. Dew Point Humidity Pressure Visibility Wind Dir Wind Speed Gust Speed Precip Events Conditions
12:38 AM 57.2 °F 57.2 °F 100% 29.70 in 10.0 mi Calm Calm - N/A   Overcast
12:43 AM 57.2 °F 57.2 °F 100% 29.70 in 10.0 mi North - - N/A   Overcast
12:58 AM 57.6 °F 57.2 °F 99% 29.71 in 10.0 mi Calm Calm - N/A   Mostly Cloudy
1:24 AM 57.2 °F 57.2 °F 100% 29.70 in 10.0 mi South 2.3 mph - N/A Rain Light Rain
1:58 AM 57.6 °F 57.2 °F 99% 29.71 in 10.0 mi Calm Calm - 0.00 in Rain Light Rain
2:58 AM 57.2 °F 56.8 °F 99% 29.71 in 8.0 mi South 4.6 mph - 0.03 in Rain Light Rain
3:22 AM 57.2 °F 57.2 °F 100% 29.69 in 10.0 mi North 2.3 mph - N/A   Overcast
3:58 AM 57.0 °F 56.7 °F 99% 29.70 in 10.0 mi ENE 3.5 mph - 0.03 in   Overcast
4:58 AM 56.3 °F 55.9 °F 99% 29.70 in 10.0 mi East 2.3 mph - N/A   Mostly Cloudy
5:58 AM 56.3 °F 56.1 °F 99% 29.71 in 10.0 mi SSE 5.8 mph - N/A   Overcast
6:00 AM 57.2 °F 55.4 °F 94% 29.70 in 9.0 mi SSE 4.6 mph - N/A Rain Light Rain
6:05 AM 57.2 °F 55.4 °F 94% 29.69 in 2.5 mi SSE 2.3 mph - N/A Rain Rain
6:10 AM 57.2 °F 55.4 °F 94% 29.69 in 2.0 mi Calm Calm - N/A Rain Light Rain
6:15 AM 57.2 °F 55.4 °F 94% 29.70 in 4.0 mi SSE 2.3 mph - N/A Rain Light Rain
6:20 AM 57.2 °F 55.4 °F 94% 29.71 in 6.0 mi South 5.8 mph - N/A Rain Light Rain
6:25 AM 57.2 °F 55.4 °F 94% 29.71 in 3.0 mi South 5.8 mph - N/A Rain Light Rain
6:35 AM 57.2 °F 55.4 °F 94% 29.70 in 3.0 mi Calm Calm - N/A Rain Rain
6:40 AM 57.2 °F 55.4 °F 94% 29.70 in 3.0 mi East 2.3 mph - N/A Rain Light Rain
6:58 AM 56.8 °F 56.5 °F 99% 29.71 in 10.0 mi Calm Calm - 0.09 in Rain Light Rain
7:01 AM 57.2 °F 57.2 °F 100% 29.70 in 10.0 mi Calm Calm - N/A   Mostly Cloudy
7:58 AM 58.8 °F 57.4 °F 95% 29.72 in 10.0 mi South 4.6 mph - 0.00 in   Mostly Cloudy
8:58 AM 61.5 °F 57.6 °F 87% 29.74 in 10.0 mi SW 6.9 mph - N/A   Overcast
9:58 AM 62.8 °F 57.6 °F 83% 29.75 in 10.0 mi SW 5.8 mph - N/A   Mostly Cloudy
10:58 AM 64.8 °F 56.8 °F 75% 29.75 in 10.0 mi SSW 5.8 mph - N/A   Overcast
11:58 AM 66.4 °F 54.9 °F 66% 29.76 in 10.0 mi SW 8.1 mph - N/A   Mostly Cloudy
11:59 AM 66.2 °F 55.4 °F 68% 29.75 in 10.0 mi SW 8.1 mph - N/A Rain Light Rain
12:20 PM 64.4 °F 57.2 °F 77% 29.75 in 10.0 mi SW 8.1 mph - N/A   Overcast
12:58 PM 68.2 °F 56.1 °F 65% 29.76 in 10.0 mi SW 10.4 mph - 0.02 in   Overcast
1:18 PM 68.0 °F 55.4 °F 64% 29.75 in 10.0 mi SSW 10.4 mph - N/A Rain Light Rain
1:40 PM 69.8 °F 57.2 °F 64% 29.75 in 10.0 mi SW 9.2 mph - N/A   Mostly Cloudy
1:58 PM 70.0 °F 55.9 °F 61% 29.76 in 10.0 mi SSW 5.8 mph - 0.00 in   Mostly Cloudy
2:58 PM 71.8 °F 53.6 °F 53% 29.75 in 10.0 mi Variable 5.8 mph - N/A   Mostly Cloudy
3:58 PM 72.9 °F 52.3 °F 48% 29.74 in 10.0 mi Variable 5.8 mph - N/A   Mostly Cloudy
4:13 PM 71.6 °F 51.8 °F 50% 29.74 in 10.0 mi SSW 11.5 mph - N/A Rain , Thunderstorm Light Thunderstorms and Rain
4:28 PM 64.4 °F 59.0 °F 83% 29.77 in 4.0 mi SSW 20.7 mph 33.4 mph N/A Rain Light Rain
4:37 PM 60.8 °F 59.0 °F 94% 29.78 in 5.0 mi SSE 12.7 mph - N/A Rain Light Rain
4:58 PM 61.3 °F 59.4 °F 93% 29.77 in 10.0 mi SE 6.9 mph - 0.08 in Rain Light Rain
5:03 PM 62.6 °F 59.0 °F 88% 29.76 in 10.0 mi SSE 5.8 mph - N/A   Overcast
5:58 PM 63.1 °F 60.6 °F 91% 29.79 in 10.0 mi WSW 4.6 mph - 0.00 in   Overcast
5:59 PM 62.6 °F 60.8 °F 94% 29.78 in 10.0 mi SW 4.6 mph - N/A Rain Light Rain
6:08 PM 62.6 °F 60.8 °F 94% 29.78 in 10.0 mi WSW 2.3 mph - N/A   Overcast
6:37 PM 64.4 °F 60.8 °F 88% 29.78 in 10.0 mi SE 2.3 mph - N/A Rain Light Rain
6:46 PM 62.6 °F 60.8 °F 94% 29.79 in 10.0 mi Calm Calm - N/A   Overcast
6:58 PM 63.9 °F 60.6 °F 89% 29.80 in 10.0 mi Variable 2.3 mph - 0.00 in   Mostly Cloudy
6:59 PM 64.4 °F 60.8 °F 88% 29.79 in 10.0 mi SSW 3.5 mph - N/A Rain Light Rain
7:07 PM 64.4 °F 60.8 °F 88% 29.79 in 10.0 mi SSW 5.8 mph - N/A   Mostly Cloudy
7:58 PM 64.6 °F 57.4 °F 77% 29.83 in 10.0 mi South 11.5 mph - 0.00 in   Overcast
8:02 PM 64.4 °F 57.2 °F 77% 29.82 in 10.0 mi SSW 10.4 mph - N/A Rain Light Rain
8:17 PM 62.6 °F 57.2 °F 82% 29.83 in 10.0 mi South 13.8 mph - N/A   Mostly Cloudy
8:18 PM 62.6 °F 57.2 °F 82% 29.83 in 10.0 mi South 13.8 mph - N/A Rain Light Rain
8:19 PM 62.6 °F 57.2 °F 82% 29.83 in 10.0 mi South 12.7 mph - N/A   Mostly Cloudy
8:31 PM 60.8 °F 57.2 °F 88% 29.84 in 10.0 mi South 11.5 mph - N/A Rain Light Rain
8:45 PM 60.8 °F 57.2 °F 88% 29.84 in 10.0 mi SSW 6.9 mph - N/A   Overcast
8:55 PM 60.8 °F 57.2 °F 88% 29.84 in 10.0 mi SW 4.6 mph - N/A   Overcast
8:58 PM 60.1 °F 56.8 °F 89% 29.86 in 10.0 mi SW 4.6 mph - 0.01 in   Overcast
9:18 PM 59.0 °F 55.4 °F 88% 29.85 in 10.0 mi SSW 5.8 mph - N/A   Overcast
9:58 PM 57.2 °F 55.9 °F 96% 29.87 in 10.0 mi SSE 4.6 mph - N/A   Mostly Cloudy
10:58 PM 57.9 °F 56.8 °F 96% 29.88 in 10.0 mi Calm Calm - N/A   Overcast
11:58 PM 57.6 °F 56.7 °F 97% 29.88 in 10.0 mi NE 2.3 mph - N/A   Mostly Cloudy